Content
SEND FEEDBACK

Daily
Averages
Monthly
Summary
United States of America

MINOT, NORTH DAKOTA


Home > North America > United States > North Dakota
Elevation: 1723 feet     Latitude: 48 15N     Longitude: 101 17W

WEATHER
 
SELECT A DAY
Number of Records: 204,185;   Date Range: 1/1/95 - 11/26/14
 
SHARE

PRINT THIS DATA

[ ← Previous Day ]
WEATHER ALMANAC - JANUARY 31, 2013
[ Next Day → ]
[ °C ]   °F
Weather ElementAverageHighLow
Temperature-16.5 °F-11.9 °F (3:54 pm)-20.2 °F (5:54 am)
Dewpoint-24.2 °F-20.9 °F (3:54 pm)-27.9 °F (7:54 am)
Humidity68 %74 % (9:54 pm)64 % (11:54 am)
Barometer30.39 in30.48 in (10:54 am)30.18 in (5:54 am)
Wind Speed16.1 mph23 mph (3:54 am)
Wind Gust21.9 mph (2:54 pm)
Weather ElementAverage
Visibility10 mi
Wind DirectionW (267.7 °)

Weather ElementTotal
Precipitation---
Heating Degree Days81.1 (Base 65)
Averaged from 22 records on January 31, 2013
WEATHER CONDITIONS BREAKOUT
WIND DIRECTION BREAKOUT
WEATHER BY HOUR - JANUARY 31, 2013
[ °C ]   °F
Local TimeTemperatureDewpointHumidityBarometerVisibilityWind DirectionWind SpeedGust SpeedPrecipitationEventsConditions
1:54 AM-18.9 °F-26.0 °F70 %30.27 in10.0 miWNW (290°)19.6 mphScattered Clouds
2:54 AM-18.9 °F-26.0 °F70 %30.30 in10.0 miWNW (290°)20.7 mphClear
3:54 AM-18.9 °F-27.0 °F66 %30.32 in10.0 miWest (280°)23.0 mphPartly Cloudy
4:54 AM-20.0 °F-27.0 °F70 %30.35 in10.0 miWNW (290°)21.9 mphClear
5:54 AM-20.2 °F-27.4 °F69 %30.18 in10.0 miWNW (290°)17.3 mphClear
6:54 AM-20.0 °F-27.0 °F70 %30.40 in10.0 miWest (280°)17.3 mphClear
7:54 AM-20.0 °F-27.9 °F67 %30.43 in10.0 miWest (280°)19.6 mphClear
8:54 AM-20.0 °F-27.0 °F70 %30.45 in10.0 miWest (270°)17.3 mphClear
9:54 AM-18.9 °F-26.0 °F70 %30.47 in10.0 miWest (270°)18.4 mphClear
10:54 AM-17.0 °F-25.1 °F67 %30.48 in10.0 miWest (280°)23.0 mphClear
11:54 AM-15.0 °F-24.0 °F64 %30.48 in10.0 miWest (280°)23.0 mphClear
12:54 PM-14.1 °F-22.0 °F68 %30.48 in10.0 miWNW (290°)21.9 mphClear
1:54 PM-13.0 °F-22.0 °F64 %30.45 in10.0 miWNW (290°)15.0 mphClear
2:54 PM-13.0 °F-22.0 °F64 %30.44 in10.0 miWest (260°)17.3 mph21.9 mphClear
3:54 PM-11.9 °F-20.9 °F64 %30.44 in10.0 miWest (270°)13.8 mphClear
4:54 PM-11.9 °F-20.9 °F64 %30.42 in10.0 miWest (260°)13.8 mphClear
5:54 PM-13.0 °F-22.0 °F64 %30.22 in10.0 miWest (260°)11.5 mphClear
6:54 PM-14.1 °F-22.0 °F68 %30.41 in10.0 miWSW (250°)9.2 mphClear
7:54 PM-14.1 °F-22.0 °F68 %30.40 in10.0 miWest (260°)9.2 mphClear
8:54 PM-15.0 °F-22.0 °F71 %30.39 in10.0 miSW (230°)10.4 mphClear
9:54 PM-17.0 °F-23.1 °F74 %30.37 in10.0 miSSW (210°)3.5 mphClear
10:54 PM-17.0 °F-23.1 °F74 %30.35 in10.0 miSSW (210°)6.9 mphClear
Hourly data recorded from KMOT, located miles away from Minot, North Dakota







STORIES FROM OUR PARTNERS